TimeEDT,TemperatureF,Dew PointF,Humidity,Sea Level PressureIn,VisibilityMPH,Wind Direction,Wind SpeedMPH,Gust SpeedMPH,PrecipitationIn,Events,Conditions,WindDirDegrees,DateUTC
12:15 AM,48.2,46.4,93,30.01,10.0,Calm,Calm,-,N/A,,Clear,0,2012-10-21 04:15:00
12:35 AM,48.2,44.6,87,30.02,10.0,NNW,3.5,-,N/A,,Clear,330,2012-10-21 04:35:00
12:55 AM,46.4,44.6,93,30.02,10.0,Calm,Calm,-,N/A,,Clear,0,2012-10-21 04:55:00
1:15 AM,46.4,44.6,93,30.03,10.0,Calm,Calm,-,N/A,,Clear,0,2012-10-21 05:15:00
1:35 AM,46.4,44.6,93,30.03,10.0,Calm,Calm,-,N/A,,Clear,0,2012-10-21 05:35:00
1:55 AM,44.6,42.8,93,30.03,10.0,Calm,Calm,-,N/A,,Clear,0,2012-10-21 05:55:00
2:15 AM,44.6,42.8,93,30.04,10.0,Calm,Calm,-,N/A,,Clear,0,2012-10-21 06:15:00
2:35 AM,46.4,44.6,93,30.04,10.0,Calm,Calm,-,N/A,,Clear,0,2012-10-21 06:35:00
2:55 AM,42.8,42.8,100,30.04,10.0,Calm,Calm,-,N/A,,Clear,0,2012-10-21 06:55:00
3:15 AM,44.6,42.8,93,30.04,10.0,Calm,Calm,-,N/A,,Clear,0,2012-10-21 07:15:00
3:35 AM,44.6,42.8,93,30.05,10.0,Calm,Calm,-,N/A,,Clear,0,2012-10-21 07:35:00
3:55 AM,44.6,42.8,93,30.05,10.0,Calm,Calm,-,N/A,,Clear,0,2012-10-21 07:55:00
4:15 AM,42.8,42.8,100,30.06,10.0,Calm,Calm,-,N/A,,Clear,0,2012-10-21 08:15:00
4:35 AM,42.8,41.0,93,30.07,10.0,Calm,Calm,-,N/A,,Clear,0,2012-10-21 08:35:00
4:55 AM,42.8,42.8,100,30.07,10.0,Calm,Calm,-,N/A,,Clear,0,2012-10-21 08:55:00
5:15 AM,42.8,42.8,100,30.07,10.0,Calm,Calm,-,N/A,,Clear,0,2012-10-21 09:15:00
5:35 AM,42.8,41.0,93,30.08,10.0,Calm,Calm,-,N/A,,Clear,0,2012-10-21 09:35:00
5:55 AM,41.0,41.0,100,30.09,10.0,Calm,Calm,-,N/A,,Clear,0,2012-10-21 09:55:00
6:15 AM,42.8,41.0,93,30.10,10.0,Calm,Calm,-,N/A,,Clear,0,2012-10-21 10:15:00
6:35 AM,42.8,41.0,93,30.10,10.0,Calm,Calm,-,N/A,,Clear,0,2012-10-21 10:35:00
6:55 AM,42.8,42.8,100,30.11,10.0,Calm,Calm,-,N/A,,Clear,0,2012-10-21 10:55:00
7:15 AM,41.0,41.0,100,30.11,10.0,Calm,Calm,-,N/A,,Clear,0,2012-10-21 11:15:00
7:35 AM,42.8,41.0,93,30.12,10.0,Calm,Calm,-,N/A,,Clear,0,2012-10-21 11:35:00
7:55 AM,42.8,42.8,100,30.13,10.0,Calm,Calm,-,N/A,,Clear,0,2012-10-21 11:55:00
8:15 AM,42.8,42.8,100,30.14,10.0,Calm,Calm,-,N/A,,Clear,0,2012-10-21 12:15:00
8:35 AM,44.6,42.8,93,30.14,10.0,Calm,Calm,-,N/A,,Clear,0,2012-10-21 12:35:00
8:55 AM,46.4,44.6,93,30.15,10.0,Calm,Calm,-,N/A,,Clear,0,2012-10-21 12:55:00
9:15 AM,51.8,46.4,82,30.16,10.0,Calm,Calm,-,N/A,,Clear,0,2012-10-21 13:15:00
9:35 AM,55.4,46.4,72,30.17,10.0,Calm,Calm,-,N/A,,Clear,0,2012-10-21 13:35:00
9:55 AM,57.2,46.4,67,30.17,10.0,NE,3.5,-,N/A,,Clear,50,2012-10-21 13:55:00
10:15 AM,59.0,48.2,67,30.18,10.0,Calm,Calm,-,N/A,,Clear,0,2012-10-21 14:15:00
10:35 AM,60.8,46.4,59,30.18,10.0,Calm,Calm,-,N/A,,Clear,0,2012-10-21 14:35:00
10:55 AM,62.6,46.4,55,30.18,10.0,East,4.6,-,N/A,,Clear,90,2012-10-21 14:55:00
11:15 AM,64.4,46.4,52,30.18,10.0,ENE,4.6,-,N/A,,Clear,70,2012-10-21 15:15:00
11:35 AM,64.4,46.4,52,30.18,10.0,Calm,Calm,-,N/A,,Clear,0,2012-10-21 15:35:00
11:55 AM,66.2,46.4,49,30.18,10.0,NNE,3.5,-,N/A,,Clear,30,2012-10-21 15:55:00
12:15 PM,68.0,44.6,43,30.18,10.0,North,9.2,-,N/A,,Clear,360,2012-10-21 16:15:00
12:35 PM,68.0,44.6,43,30.17,10.0,NNE,8.1,-,N/A,,Clear,20,2012-10-21 16:35:00
1:15 PM,69.8,42.8,38,30.16,10.0,North,4.6,-,N/A,,Clear,360,2012-10-21 17:15:00
1:35 PM,69.8,42.8,38,30.15,10.0,NNW,5.8,-,N/A,,Clear,340,2012-10-21 17:35:00
1:55 PM,71.6,41.0,33,30.14,10.0,NE,8.1,-,N/A,,Clear,50,2012-10-21 17:55:00
2:15 PM,71.6,42.8,35,30.14,10.0,NE,4.6,-,N/A,,Clear,40,2012-10-21 18:15:00
2:35 PM,73.4,42.8,33,30.13,10.0,ENE,4.6,-,N/A,,Clear,60,2012-10-21 18:35:00
2:55 PM,73.4,42.8,33,30.13,10.0,North,9.2,-,N/A,,Clear,10,2012-10-21 18:55:00
3:15 PM,73.4,42.8,33,30.13,10.0,North,8.1,-,N/A,,Clear,360,2012-10-21 19:15:00
3:35 PM,73.4,41.0,31,30.13,10.0,NW,4.6,-,N/A,,Clear,320,2012-10-21 19:35:00
3:55 PM,73.4,42.8,33,30.12,10.0,Calm,Calm,-,N/A,,Clear,0,2012-10-21 19:55:00
4:15 PM,73.4,42.8,33,30.13,10.0,North,3.5,-,N/A,,Clear,350,2012-10-21 20:15:00
4:35 PM,73.4,42.8,33,30.12,10.0,NE,4.6,-,N/A,,Clear,50,2012-10-21 20:35:00
4:55 PM,73.4,42.8,33,30.13,10.0,North,4.6,-,N/A,,Clear,10,2012-10-21 20:55:00
5:15 PM,73.4,42.8,33,30.13,10.0,NNE,3.5,-,N/A,,Clear,20,2012-10-21 21:15:00
5:35 PM,73.4,44.6,36,30.13,10.0,NNE,4.6,-,N/A,,Clear,30,2012-10-21 21:35:00
5:55 PM,73.4,44.6,36,30.13,10.0,NE,3.5,-,N/A,,Clear,40,2012-10-21 21:55:00
6:15 PM,71.6,44.6,38,30.13,10.0,Calm,Calm,-,N/A,,Clear,0,2012-10-21 22:15:00
6:35 PM,68.0,48.2,49,30.13,10.0,Calm,Calm,-,N/A,,Clear,0,2012-10-21 22:35:00
6:55 PM,64.4,50.0,59,30.13,10.0,Calm,Calm,-,N/A,,Clear,0,2012-10-21 22:55:00
7:15 PM,60.8,50.0,68,30.14,10.0,Calm,Calm,-,N/A,,Clear,0,2012-10-21 23:15:00
7:35 PM,60.8,50.0,68,30.14,10.0,Calm,Calm,-,N/A,,Clear,0,2012-10-21 23:35:00
7:55 PM,59.0,50.0,72,30.14,10.0,Calm,Calm,-,N/A,,Clear,0,2012-10-21 23:55:00
8:15 PM,55.4,50.0,82,30.15,10.0,Calm,Calm,-,N/A,,Clear,0,2012-10-22 00:15:00
8:35 PM,55.4,50.0,82,30.15,10.0,Calm,Calm,-,N/A,,Clear,0,2012-10-22 00:35:00
8:55 PM,55.4,50.0,82,30.14,10.0,Calm,Calm,-,N/A,,Clear,0,2012-10-22 00:55:00
9:15 PM,53.6,50.0,88,30.15,10.0,Calm,Calm,-,N/A,,Clear,0,2012-10-22 01:15:00
9:35 PM,53.6,48.2,82,30.15,10.0,Calm,Calm,-,N/A,,Clear,0,2012-10-22 01:35:00
9:55 PM,53.6,48.2,82,30.15,10.0,Calm,Calm,-,N/A,,Clear,0,2012-10-22 01:55:00
10:35 PM,53.6,48.2,82,30.15,10.0,Calm,Calm,-,N/A,,Clear,0,2012-10-22 02:35:00
10:55 PM,51.8,48.2,88,30.15,10.0,Calm,Calm,-,N/A,,Clear,0,2012-10-22 02:55:00
11:15 PM,51.8,48.2,88,30.15,10.0,Calm,Calm,-,N/A,,Clear,0,2012-10-22 03:15:00
11:35 PM,51.8,48.2,88,30.15,10.0,Calm,Calm,-,N/A,,Clear,0,2012-10-22 03:35:00
11:55 PM,51.8,46.4,82,30.16,10.0,Calm,Calm,-,N/A,,Clear,0,2012-10-22 03:55:00